This demonstration page uses our WeatherBlox Daily Observations layout. Learn more.

Left ArrowRight Arrow

34.16533, -84.80231

Hourly Observations for July 2, 2017

Temp ( °F °C ) Dew Point ( °F °C ) Humidity (%) Winds ( mph kmh ) Pressure ( in mb ) Visibility ( mi km ) Precip ( " mm )
12:05 am 00:05 Partly Cloudy 70 21.1 70 21.1 100 100 VRB 5 7 30.12 1020 10 16 0.00 0.00
12:53 am 00:53 Clear 69 20.6 69 20.6 100 100 Calm 30.11 1020 9 14 0.00 0.00
1:53 am 01:53 Clear 69 20.6 69 20.6 100 100 Calm 30.11 1020 8 13 0.00 0.00
2:53 am 02:53 Clear 70 21.1 70 21.1 100 100 Calm 30.09 1019 9 14 0.00 0.00
3:53 am 03:53 Clear 70 21.1 70 21.1 100 100 Calm 30.07 1018 9 14 0.00 0.00
4:53 am 04:53 Partly Cloudy 69 20.6 69 20.6 100 100 Calm 30.07 1018 8 13 0.00 0.00
5:07 am 05:07 Mostly Cloudy 70 21.1 70 21.1 100 100 Calm 30.09 1019 8 13 0.00 0.00
5:53 am 05:53 Cloudy with Mist and Fog 69 20.6 69 20.6 100 100 Calm 30.08 1019 6 10 0.00 0.00
6:26 am 06:26 Cloudy with Mist and Fog 69 20.6 69 20.6 100 100 Calm 30.09 1019 2 3 0.00 0.00
6:40 am 06:40 Mostly Cloudy with Mist and Fog 69 20.6 69 20.6 100 100 Calm 30.12 1020 1 1 0.00 0.00
6:53 am 06:53 Mostly Cloudy with Fog 69 20.6 69 20.6 100 100 Calm 30.11 1020 1 1 0.00 0.00
7:03 am 07:03 Cloudy with Mist and Fog 69 20.6 69 20.6 100 100 SSW 3 6 30.12 1020 2 3 0.00 0.00
7:28 am 07:28 Cloudy with Mist and Fog 69 20.6 69 20.6 100 100 Calm 30.12 1020 1 2 0.00 0.00
7:53 am 07:53 Cloudy with Mist and Fog 69 20.6 69 20.6 100 100 Calm 30.13 1020 2 3 0.00 0.00
8:01 am 08:01 Cloudy with Mist and Fog 70 21.1 70 21.1 100 100 Calm 30.12 1020 3 4 0.00 0.00
8:14 am 08:14 Cloudy with Mist and Fog 70 21.1 70 21.1 100 100 Calm 30.15 1021 2 3 0.00 0.00
8:22 am 08:22 Cloudy with Mist and Fog 71 21.7 71 21.7 100 100 Calm 30.15 1021 3 5 0.00 0.00
8:53 am 08:53 Mostly Cloudy 72 22.2 72 22.2 100 100 Calm 30.14 1021 9 14 0.00 0.00
9:06 am 09:06 Mostly Cloudy 72 22.2 72 22.2 100 100 Calm 30.15 1021 10 16 0.00 0.00
9:25 am 09:25 Mostly Cloudy 74 23.3 72 22.2 94 94 Calm 30.15 1021 10 16 0.00 0.00
9:46 am 09:46 Partly Cloudy 76 24.4 73 22.8 91 91 Calm 30.15 1021 10 16 0.00 0.00
9:53 am 09:53 Partly Cloudy 77 25 74 23.3 90 90 VRB 3 6 30.15 1021 10 16 0.00 0.00
10:53 am 10:53 Mostly Cloudy 78 25.6 73 22.8 85 85 NNW 6 9 30.15 1021 10 16 0.00 0.00
11:53 am 11:53 Partly Cloudy 81 27.2 75 23.9 82 82 VRB 3 6 30.15 1021 10 16 0.00 0.00
12:17 pm 12:17 Mostly Cloudy 82 27.8 75 23.9 79 79 Calm 30.12 1020 10 16 0.00 0.00
12:53 pm 12:53 Mostly Cloudy 83 28.3 75 23.9 77 77 SE 3 6 30.14 1021 10 16 0.00 0.00
1:26 pm 13:26 Partly Cloudy 84 28.9 76 24.4 77 77 VRB 5 7 30.12 1020 10 16 0.00 0.00
1:53 pm 13:53 Mostly Sunny 85 29.4 75 23.9 72 72 Calm 30.11 1020 10 16 0.00 0.00
2:53 pm 14:53 Mostly Cloudy 87 30.6 75 23.9 67 67 VRB 3 6 30.09 1019 10 16 0.00 0.00
3:53 pm 15:53 Mostly Cloudy 88 31.1 73 22.8 61 61 VRB 3 6 30.06 1018 10 16 0.00 0.00
4:53 pm 16:53 Partly Cloudy 86 30 72 22.2 63 63 VRB 5 7 30.06 1018 10 16 0.00 0.00
5:53 pm 17:53 Mostly Sunny 83 28.3 73 22.8 72 72 NNE 7 11 30.06 1018 10 16 0.00 0.00
6:53 pm 18:53 Sunny 84 28.9 73 22.8 70 70 NE 3 6 30.06 1018 10 16 0.00 0.00
7:53 pm 19:53 Sunny 77 25 76 24.4 96 96 SE 3 6 30.06 1018 10 16 0.00 0.00
8:48 pm 20:48 Mostly Cloudy with Nearby Thunderstorms 73 23 72 22 94 94 VRB 3 6 30.09 1019 10 16 0.00 0.00
8:53 pm 20:53 Partly Cloudy with Nearby Thunderstorms 73 22.8 71 21.7 94 94 VRB 3 6 30.09 1019 10 16 0.00 0.00
9:08 pm 21:08 Mostly Clear with Light Rain 72 22.2 72 22.2 100 100 VRB 3 6 30.09 1019 8 13 0.01 0.25
9:53 pm 21:53 Mostly Cloudy with Light Rain 71 21.7 71 21.7 100 100 NNE 3 6 30.09 1019 10 16 0.04 1.02
10:53 pm 22:53 Mostly Cloudy 71 21.7 71 21.7 100 100 E 3 6 30.08 1019 10 16 0.00 0.03
11:53 pm 23:53 Cloudy 72 22.2 72 22.2 100 100 Calm 30.08 1019 10 16 0.00 0.00

Powered by AerisWeather